User: anonymous   Login
Location: Borea
(45.6167°N, 23.0167°E)
Time: 01:27:06
(UTC+00:00)
Language:

SKYMED 2 - Orbit

View from above orbital plane
View from above orbital plane
View from above satellite
View from above satellite

Ground track
Ground track

The orbit data is extracted from the following two-line orbital elements,

1 32376U 07059A   23152.46525244  .00000553  00000-0  76054-4 0  9996
2 32376  97.8882 336.1697 0001323  93.8568 266.2797 14.82163794837325
Epoch (UTC): 01 June 2023 11:09:57
Eccentricity: 0.0001323
inclination: 97.8882°
perigee height: 621 km
apogee height: 623 km
right ascension of ascending node: 336.1697°
argument of perigee: 93.8568°
revolutions per day: 14.82163794
mean anomaly at epoch: 266.2797°
orbit number at epoch: 83732

The dashed part of the orbit path shows where the satellite is in the earth's shadow,  

DLR